Tracking 19489 objects as of 22-Jan-2019
HD Live streaming from Space Station
objects crossing your sky now

PAS 6

Track PAS 6 now!
PAS 6 is classified as:


NORAD ID: 24891
Int'l Code: 1997-040A
Perigee: 34,745.6 km
Apogee: 40,740.7 km
Inclination: 12.9 °
Period: 1,536.8 minutes
Semi major axis: 44114 km
RCS: 18.6316 m2 (large)
Launch date: August 8, 1997
Source: United States (US)
Launch site: FRENCH GUIANA (FRGUI)
aabbcc
Your satellite tracking list
Your tracking list is empty




NASA's NSSDC Master Catalog

Two Line Element Set (TLE):
1 24891U 97040A   19022.17531437 -.00000200  00000-0  00000+0 0  9991
2 24891  12.8979 340.9839 0679501 192.6126 150.5017  0.93699290 73874
Source of the keplerian elements: AFSPC